Torna al catalogo

STARLINK-36308

AttivoComunicazioniVLEO
NORAD 68543·PAYLOAD·🇺🇸 United States

Lanciato Apr 2, 2026 da Cape Canaveral Space Force Station

Loading…

Prossimi Passaggi (prossime 24 ore)

TLE

AggiornatoSource: CelesTrak SupGP

Epoca: Sep 15, 2026, 03:21 UTC

1 68543C 26070B   26258.14006944 -.00061115  00000+0 -18057-2 0  2588
2 68543  53.1588 199.0392 0001349  82.5468 176.0903 15.34420275    11

Traccia STARLINK-36308 in tempo reale con AllMySat

Download on the App Store